Regional Weather Roundup
Issued by NWS

Home | Current Version | Previous Version | Text Only | Print | Product List | Glossary On
Versions: 1 2 3 4 5 6 7 8 9 10 11 12 13 14 15 16 17 18 19 20 21 22 23 24 25 26 27 28 29 30 31 32 33 34 35 36 37 38 39 40 41 42 43 44 45 46 47 48 49 50
000
ASUS46 KLOX 012112
RWRCA

SOUTHERN CALIFORNIA WEATHER ROUNDUP
NATIONAL WEATHER SERVICE OXNARD CALIFORNIA
100 PM PST SUN MAR 01 2015

NOTE: "FAIR" INDICATES FEW OR NO CLOUDS BELOW 12,000 FEET WITH NO
SIGNIFICANT WEATHER AND/OR OBSTRUCTIONS TO VISIBILITY.

  -  STATIONS PRECEEDED BY AN ASTERISK (*) ARE NOT NWS OR FAA
     STATIONS AND ARE NOT SUBJECT TO NWS AND FAA QUALITY CONTROL.

CAZ041-042-087-012200-
LA AND ORANGE COUNTY COASTAL AREAS


CITY           SKY/WX    TMP DP  RH WIND       PRES   REMARKS
L.A. DOWNTOWN  CLOUDY    62  46  55 SE7       29.90F
L.A. AIRPORT   PTSUNNY   61  47  59 SE9G16    29.90F
LONG BEACH     PTSUNNY   60  48  64 S8        29.92S

CITY           SKY/WX    TMP DP  RH WIND       PRES   REMARKS
AVALON           N/A     55 N/A N/A MISG        N/A
FULLERTON      PTSUNNY   59  46  62 SE9       29.91F
*GETTY CENTER    N/A    N/A N/A N/A E6G12       N/A
HAWTHORNE      PTSUNNY   62  46  55 SE12      29.91F
*LEO CARRILLO    N/A     64  46  52 E8          N/A
*LOS ALAMITOS  PTSUNNY   60  49  66 SE8       29.91F
*REDONDO BEACH   N/A     64  49  58 S5        29.91F
SANTA ANA      CLOUDY    63  48  58 S8        29.91F
STA MONICA APT CLOUDY    63  42  46 E8        29.91F
*UCLA            N/A     61  41  48 SE2       29.87F

$$

CAZ547-548-048-012200-
LA COUNTY VALLEYS AND INLAND EMPIRE


CITY           SKY/WX    TMP DP  RH WIND       PRES   REMARKS
BURBANK        MOSUNNY   61  41  47 SE13G21   29.89F
VAN NUYS       MOSUNNY   62  42  47 S14       29.89F

CITY           SKY/WX    TMP DP  RH WIND       PRES   REMARKS
CORONA AIRPORT CLOUDY    55  44  66 SE10G16   29.94F
*CHATSWORTH      N/A     60  40  47 E8        29.90F
CHINO          CLOUDY    57  45  64 E10       29.95F
MARCH AFB      CLOUDY    52  45  79 E9        29.93R
*NORTHRIDGE      N/A     63  39  42 SE7         N/A
ONTARIO        CLOUDY    55  43  63 SE7       29.93S
*PASADENA        N/A     61  48  63 E2          N/A
POMONA         CLOUDY    54  45  71 E12G17    29.95
RIVERSIDE      CLOUDY    56  45  66 S10       29.95R
SAN BERNARDINO CLOUDY    54  45  71 S3        29.94R
*SAN GABRIEL     N/A     60  42  51 CALM      29.89F
*SAN RAFAEL HI   N/A     58  44  60 S12G24      N/A
*SAUGUS          N/A     57  45  63 N3          N/A
*WHITEMAN AP   NOT AVBL
*WHITTIER HILL   N/A     60  47  61 SE7G21      N/A
*WOODLAND HILL   N/A     59  41  51 E5          N/A

$$

CAZ054-055-012200-
LA AND SAN BERNARDINO COUNTY MOUNTAINS


CITY           SKY/WX    TMP DP  RH WIND       PRES   REMARKS
*BIG BEAR AIRP LGT SNOW  32  27  80 S9G22     29.91R VSB 3/4 WCI  24
*CHILAO          N/A     39  33  79 S10         N/A  WCI  32
MT WILSON NWS    N/A     34  36 100 MISG        N/A
SANDBERG       LGT RAIN  41  34  76 NE7       29.90F
*WARM SPRINGS    N/A     47  37  67 E10         N/A

$$

CAZ028-029-059-060-099-012200-
ANTELOPE VALLEY AND SURROUNDING AREAS


CITY           SKY/WX    TMP DP  RH WIND       PRES   REMARKS
LANCASTER      MOSUNNY   53  38  56 NE7       29.92F
PALMDALE       PTSUNNY   52  38  58 NE12G17   29.91F
*POPPY PARK      N/A     55  42  62 E7          N/A

CITY           SKY/WX    TMP DP  RH WIND       PRES   REMARKS
29 PALMS       LGT RAIN  49  42  77 SE9       30.03F
BARSTOW/DAGGET CLOUDY    54  35  48 E12       29.91F
BISHOP         CLOUDY    46  29  51 VRB3      29.94F
CHINA LAKE     CLOUDY    57  33  40 N8        29.91F
EDWARDS AFB    CLOUDY    54  35  48 NE13      29.90F
MOJAVE         CLOUDY    48  36  61 E7        29.92F
NEEDLES        LGT RAIN  57  49  74 SW6       29.96F
VICTORVILLE    PTSUNNY   50  34  53 SE7       29.92R

$$

CAZ039-040-012200-
VENTURA AND SANTA BARBARA COUNTY COAST


CITY           SKY/WX    TMP DP  RH WIND       PRES   REMARKS
CAMARILLO      MOSUNNY   63  43  48 S9        29.90F
OXNARD AIRPORT SUNNY     63  44  50 S10       29.90F
*POINT MUGU    PTSUNNY   65  47  52 S14       29.91F
SBA APT/GOLETA MOSUNNY   62  46  55 S8        29.90F
*SANTA BARBARA   N/A     65  41  41 NW5       29.98F
*VENTURA         N/A     64  42  45 CALM      29.93S

$$

CAZ044-045-012200-
VENTURA COUNTY VALLEYS


CITY           SKY/WX    TMP DP  RH WIND       PRES   REMARKS
*SIMI VALLEY     N/A     59  42  53 E3        29.88F
*OJAI            N/A     62  44  52 E5        29.83F
*FILLMORE        N/A     67  45  46 CALM      29.79F

$$

CAZ053-012200-
VENTURA COUNTY MOUNTAINS


CITY           SKY/WX    TMP DP  RH WIND       PRES   REMARKS
*LOCKWOOD VLY    N/A     36  30  80 E6          N/A  WCI  31
*ROSE VALLEY     N/A     43  43 100 MISG        N/A

$$

CAZ034-035-036-012200-
CENTRAL COAST AND SANTA YNEZ VALLEY


CITY           SKY/WX    TMP DP  RH WIND       PRES   REMARKS
SAN LUIS OBISP PTSUNNY   59  44  57 W7        29.91F
SANTA MARIA    PTSUNNY   59  43  55 NW8       29.91F

CITY           SKY/WX    TMP DP  RH WIND       PRES   REMARKS
*CAL POLY SLO    N/A     61  46  59 VRB6G14     N/A
*LOMPOC        CLOUDY    54  43  66 SW6       29.94F
*PISMO BEACH     N/A     59  49  69 W10       29.92F
*SANTA YNEZ    CLOUDY    52  45  76 NE9       29.92S

$$

CAZ037-038-051-012200-
SAN LUIS OBISPO COUNTY INTERIOR AND CUYAMA VALLEY


CITY           SKY/WX    TMP DP  RH WIND       PRES   REMARKS
*CUYAMA          N/A     50  39  65 CALM      29.91F
PASO ROBLES    MOSUNNY   55  43  63 CALM      29.93F

$$

CAZ032-033-061-012200-
SOUTHERN DESERTS


CITY           SKY/WX    TMP DP  RH WIND       PRES   REMARKS
BLYTHE         CLOUDY    56  50  80 NW9       29.95F
IMPERIAL       LGT RAIN  55  53  93 NW8       29.95F
PALM SPRINGS   LGT RAIN  53  47  79 S5        30.01F
THERMAL        LGT RAIN  57  48  72 W6        29.98F

$$

ELSEWHERE ACROSS THE WESTERN UNITED STATES AND MEXICO


CITY           SKY/WX    TMP DP  RH WIND       PRES   REMARKS
DENVER, CO     CLOUDY    25  15  66 CALM      30.22S
GRAND CANYON,  SNOW      33  32  96 CALM      30.00F VSB 1/4
HONOLULU, HI   MOSUNNY   81  63  54 NE16      30.04S
KAHULUI, MAUI  MOSUNNY   77  68  73 NE8       30.04S
LAKE TAHOE, CA PTSUNNY   36  23  59 N9        29.97F WCI  29
LAS VEGAS, NV  CLOUDY    56  33  42 E5        29.93F
MAMMOTH LAKES, LGT SNOW  32  23  69 NE8       29.93F WCI  25
MEXICO CITY, M SUNNY     77  36  22 W3        30.29F
PHOENIX, AZ    PTSUNNY   75  46  35 S16G24    29.90F
PORTLAND, OR   MOSUNNY   52  29  41 W7        30.15F
RENO, NV       PTSUNNY   42  27  55 NE8       30.03F
SALT LAKE CITY PTSUNNY   44  28  53 VRB3      30.05F
SAN DIEGO, CA  LGT RAIN  56  49  77 E10       29.93F
SAN FRANCISCO, MOSUNNY   61  36  39 CALM      29.96F
SAN JOSE, CA   MOSUNNY   61  37  41 W7        29.95F
SEATTLE, WA    CLOUDY    51  26  37 SW6       30.13F
TIJUANA, MEX   RAIN      55  48  76 NE9       29.96F

$$

STATION/POSITION TIME  TEMP    WIND        PRES    VSBY  WAVE
                       AIR SEA DIR/SP/G                  HT/PER
                 (UTC) (F)     (DEG/KT/KT) (MB)    (MI)  (FT/S)
POINT ARGUELLO B NOT AVBL
WEST SANTA BARBA 2100   57 60  100/  2/  4 1012.9F         7/11
POINT CONCEPTION NOT AVBL
EAST SANTA BARBA NOT AVBL
SANTA MONICA BAY 2100   58 62  130/  6/  8 1013.4F         3/14


USA.gov is the U.S. government's official web portal to all federal, state and local government web resources and services.